This is the latest recevied weather packets stored in our database for station/object KC7UNY-13. If no packets are shown the sender has not sent any weather packets the latest 10 day(s).
| Time | Temp. | Humidity | Pressure | Rain* | Wind** | Luminosity | Snow |
|---|---|---|---|---|---|---|---|
| 1777947772 | 23.89° C | 37% | 1011.6 hPa | 0 mm | - | 0 W/m² | - |
| 1777947469 | 24.44° C | 38% | 1011 hPa | 0 mm | - | 1 W/m² | - |
| 1777947166 | 24.44° C | 37% | 1011.2 hPa | 0 mm | - | 1 W/m² | - |
| 1777946862 | 24.44° C | 38% | 1011.1 hPa | 0 mm | - | 2 W/m² | - |
| 1777946557 | 24.44° C | 38% | 1011 hPa | 0 mm | - | 2 W/m² | - |
| 1777946255 | 24.44° C | 38% | 1010.9 hPa | 0 mm | - | 3 W/m² | - |
| 1777945952 | 24.44° C | 38% | 1010.9 hPa | 0 mm | - | 5 W/m² | - |
| 1777945649 | 24.44° C | 37% | 1010.7 hPa | 0 mm | - | 8 W/m² | - |
| 1777945346 | 24.44° C | 38% | 1010.7 hPa | 0 mm | - | 13 W/m² | - |
| 1777945042 | 24.44° C | 37% | 1010.4 hPa | 0 mm | - | 18 W/m² | - |
| 1777944740 | 25° C | 38% | 1010.7 hPa | 0 mm | - | 20 W/m² | - |
| 1777944438 | 25° C | 37% | 1010.9 hPa | 0 mm | - | 22 W/m² | - |
| 1777944135 | 25° C | 37% | 1010.8 hPa | 0 mm | - | 25 W/m² | - |
| 1777943830 | 25° C | 37% | 1010.7 hPa | 0 mm | - | 33 W/m² | - |
| 1777943528 | 25° C | 37% | 1011 hPa | 0 mm | - | 41 W/m² | - |
| 1777943223 | 25° C | 36% | 1010.8 hPa | 0 mm | - | 46 W/m² | - |
| 1777942920 | 25° C | 37% | 1010.8 hPa | 0 mm | - | 52 W/m² | - |
| 1777942616 | 25° C | 37% | 1010.7 hPa | 0 mm | - | 72 W/m² | - |
| 1777942314 | 25.56° C | 37% | 1010.9 hPa | 0 mm | - | 84 W/m² | - |
| 1777942010 | 25.56° C | 37% | 1010.8 hPa | 0 mm | - | 89 W/m² | - |
| 1777941706 | 25° C | 36% | 1010.7 hPa | 0 mm | - | 83 W/m² | - |
| 1777941404 | 25° C | 37% | 1010.8 hPa | 0 mm | - | 74 W/m² | - |
| 1777941102 | 25.56° C | 36% | 1010.9 hPa | 0 mm | - | 84 W/m² | - |
| 1777940798 | 25.56° C | 37% | 1010.8 hPa | 0 mm | - | 84 W/m² | - |
| 1777940496 | 25° C | 37% | 1010.8 hPa | 0 mm | - | 102 W/m² | - |
* Rain latest hour (hover to see other rain measurements)
** Current wind speed in m/s (hover to see current wind gust speed)